DECAYED
Showing default

BRO-7, 52174 (Decayed)

Orbit data source: Space-Track

BRO-7, 52174 was a payload satellite owned by Unseen Labs (FR) in LEO that was launched on Fri, 01 Apr 2022 UTC via an FALCON 9 launch vehicle from the Air Force Eastern Test Range (AFETR). Payload-class satellites include a variety of spacecraft equipped with specific instruments for various scientific and technological missions. These include communications satellites like Starlink; space stations such as the ISS; scientific satellites like the Hubble; Earth observation satellites from companies like Planet Labs, Umbra, and HawkEye 360; GPS; miniature CubeSats for education and research; and military/defense satellites.

Not visible in the next 10 days
Identifier
52174, 2022-033T
Orbit
Decayed
Country
Flag of FRFR
Related business
Manufacturer
GOMSpace
Mission
Decayed Commercial Sigint
Bus & Motor
CUBESAT 6U, Unknown motor
Mass
10 kg wet, ~10 kg dry
Launch date (UTC)
2022-04-01 (4 years ago)
Launch vehicle
FALCON 9
Launch site
Air Force Eastern Test Range (AFETR)
Object type
Payload
Rocket body
Debris
Shape & HBR
Box, 0.1 m
Radar Cross Section
0.080 m², Medium (>0.1 m² and < 1m²)

Expand to show TLE details & history
Last TLE update: 5 months ago

TLE from 5 months ago
0 BRO-7
1 52174U 22033T   25162.76230045  .11393183  24806-5  44250-3 0  9994
2 52174  97.2708 262.3985 0016745 266.7450  93.1935 16.42172300179386
Epoch: 2025-06-11T18:17Z
TLE epoch observation values (Epoch: 2025-06-11T18:17:42.758Z)
Latitude
-0.00007°
Longitude
87.6302°
Altitude
163.917 km
Speed
7.807 km/s
True Right ascension
17h 29m 35s
True Declination
0° 00' 00"
Sunlit
Object was in full shadow at epoch
Visualization orbit readout
Latitude
Unknown
Longitude
Unknown
Altitude
Unknown
Speed
Unknown
Apparent Right ascension
Unknown
Apparent Declination
Unknown
Sunlit
N/A
Visualization observer readout
Local Sidereal Time
13:34:58
Azimuth
Unknown
Elevation
Unknown
Doppler factor
Unknown
Orbital elements
Apogee altitude
167.772 km
Perigee altitude
145.886 km
Semi-major axis
6,534.966 km
Eccentricity
0.00167
Inclination
97.2708°
RAAN
262.3985°
Arg. of periapsis
266.745°
True anomaly
93.38506°
Mean anomaly
93.1935°
Eccentric anomaly
93.28928°
Mean motion
4.10845 °/min
Orbital period
87.62 mins
BSTAR
0.0004425
Loading maneuver chart data...
Computing Atmospheric mass density...
Loading historical data...
Loading historical data...
Loading historical data...
Loading historical data...
Loading historical data...
Loading historical data...
Loading historical data...

Documentation

Showing up to 5 results
|